DELTA 1 DEB, 7156

Orbit data source: Space-Track

DELTA 1 DEB, 7156 is space debris in SSO originally from a launch on Tue, 06 Nov 1973 UTC launched from the Air Force Western Test Range (AFWTR). Debris objects in space refer to the collection of defunct objects orbiting the Earth. Examples of debris include non-operational satellites, rocket bodies, and fragments generated from explosions, collisions, or faulty payload assembly.

Loading next visibility...
Identifier
7156, 1973-086DV
Orbit
SSO
Country
Flag of USUS
Related business
Manufacturer
Unknown
Mission
Spacecraft
Bus & Motor
Unknown
Mass
Unknown
Launch date (UTC)
1973-11-06 (52 years ago)
Launch vehicle
Unknown
Launch site
Air Force Western Test Range (AFWTR)
Object type
Payload
Rocket body
Debris
Shape & HBR
Unknown shape, 0.2 m
Radar Cross Section
Medium (>0.1 m² and <1 m²)

Expand to show TLE details & history
Last TLE update: 11 hours ago

TLE from 11 hours ago
0 DELTA 1 DEB
1  7156U 73086DV  26034.26409449 -.00000038  00000-0  31881-4 0  9993
2  7156 102.0150 274.8065 0136867  69.5259  45.6859 12.14430220316230
Epoch: 2026-02-03T06:20Z
TLE epoch observation values (Epoch: 2026-02-03T06:20:17.763Z)
Latitude
61.31099°
Longitude
-110.94558°
Altitude
1,551.494 km
Speed
7.13 km/s
True Right ascension
07h 50m 18s
True Declination
61° 10' 50"
Sunlit
Object was in full shadow at epoch
Visualization orbit readout
Latitude
Unknown
Longitude
Unknown
Altitude
Unknown
Speed
Unknown
Apparent Right ascension
Unknown
Apparent Declination
Unknown
Sunlit
N/A
Visualization observer readout
Local Sidereal Time
19:37:02
Azimuth
Unknown
Elevation
Unknown
Doppler factor
Unknown
Orbital elements
Apogee altitude
1,723.895 km
Perigee altitude
1,505.109 km
Semi-major axis
7,992.639 km
Eccentricity
0.01369
Inclination
102.015°
RAAN
274.8065°
Arg. of periapsis
69.5259°
True anomaly
46.8216°
Mean anomaly
45.6859°
Eccentric anomaly
46.25239°
Mean motion
3.03744 °/min
Orbital period
118.52 mins
BSTAR
0.000031881
Loading maneuver chart data...
Computing Atmospheric mass density...

Documentation

Showing up to 5 results
|